This demonstration page uses our WeatherBlox Daily Observations layout. Learn more.

Left ArrowRight Arrow

40.92945, -100.16068

Hourly Observations for February 17, 2021

Temp ( °F °C ) Dew Point ( °F °C ) Humidity (%) Winds ( mph kmh ) Pressure ( in mb ) Visibility ( mi km ) Precip ( " mm )
12:15 am 00:15 Cloudy with Light Snow 7 -14.1 2 -16.5 82 82 SE 8 13 30.18 1022 7 11.26538 N/A
12:35 am 00:35 Cloudy with Light Snow 7 -14 3 -16.3 83 83 SSE 9 15 30.18 1022 10 16.0934 N/A
12:55 am 00:55 Cloudy with Light Snow 7 -13.7 3 -16.1 82 82 SSE 10 17 30.18 1022 10 16.0934 N/A
1:15 am 01:15 Cloudy with Light Snow 8 -13.5 3 -15.9 82 82 SSE 8 13 30.18 1022 10 16.0934 N/A
1:35 am 01:35 Cloudy with Light Snow 8 -13.5 4 -15.8 83 83 SSE 9 15 30.18 1022 10 16.0934 N/A
1:55 am 01:55 Cloudy with Light Snow 8 -13.5 4 -15.8 83 83 SE 9 15 30.18 1022 10 16.0934 N/A
2:15 am 02:15 Cloudy 8 -13.5 4 -15.8 83 83 SSE 10 17 30.18 1022 10 16.0934 N/A
2:35 am 02:35 Cloudy 8 -13.5 4 -15.8 83 83 SSE 10 17 30.18 1022 10 16.0934 N/A
2:55 am 02:55 Cloudy 8 -13.5 4 -15.8 83 83 SSE 12 19 30.17 1022 10 16.0934 N/A
3:15 am 03:15 Cloudy 8 -13.5 4 -15.7 84 84 SSE 10 17 30.18 1022 10 16.0934 N/A
3:35 am 03:35 Cloudy with Light Snow 8 -13.5 4 -15.7 84 84 SSE 9 15 30.18 1022 10 16.0934 N/A
3:55 am 03:55 Cloudy 8 -13.6 3 -16 82 82 SSE 12 19 30.18 1022 10 16.0934 N/A
4:15 am 04:15 Cloudy 7 -13.7 3 -16 83 83 SSE 9 15 30.18 1022 10 16.0934 N/A
4:35 am 04:35 Cloudy 7 -13.8 3 -16.1 83 83 SSE 10 17 30.18 1022 10 16.0934 N/A
4:55 am 04:55 Cloudy 7 -13.8 3 -16.1 83 83 S 9 15 30.19 1022 10 16.0934 N/A
5:15 am 05:15 Cloudy 7 -13.8 3 -16.1 83 83 S 10 17 30.2 1023 10 16.0934 N/A
5:35 am 05:35 Cloudy with Light Snow 7 -13.8 3 -16.1 83 83 S 9 15 30.21 1023 10 16.0934 N/A
5:55 am 05:55 Cloudy 7 -14 3 -16.3 83 83 S 8 13 30.21 1023 10 16.0934 N/A
6:15 am 06:15 Cloudy with Light Snow 7 -14 3 -16.3 83 83 S 9 15 30.22 1023 10 16.0934 N/A
6:35 am 06:35 Cloudy with Light Snow 7 -14 2 -16.4 82 82 S 10 17 30.22 1023 10 16.0934 N/A
6:55 am 06:55 Cloudy with Light Snow 7 -14 2 -16.5 82 82 S 9 15 30.22 1023 10 16.0934 N/A
7:15 am 07:15 Cloudy with Light Snow 7 -14 2 -16.5 82 82 S 7 11 30.23 1024 10 16.0934 N/A
7:35 am 07:35 Cloudy with Light Snow 7 -13.8 3 -16.2 82 82 SSW 7 11 30.24 1024 10 16.0934 N/A
7:55 am 07:55 Cloudy with Light Snow 7 -13.8 3 -16.2 82 82 S 6 9 30.25 1024 7 11.26538 N/A
8:15 am 08:15 Cloudy with Light Snow 7 -13.7 3 -16.1 82 82 SSW 3 6 30.26 1025 4 6.43736 N/A
8:35 am 08:35 Cloudy with Light Snow 8 -13.5 3 -16 82 82 SSW 5 7 30.26 1025 2.5 4.02335 N/A
8:55 am 08:55 Cloudy with Light Snow 8 -13.2 4 -15.8 81 81 SW 5 7 30.26 1025 2.5 4.02335 N/A
9:15 am 09:15 Cloudy with Light Snow 9 -13 4 -15.8 80 80 SW 3 6 30.27 1025 2.5 4.02335 N/A
9:35 am 09:35 Cloudy with Light Snow 9 -12.6 4 -15.6 79 79 SSW 5 7 30.27 1025 1.75 2.816345 N/A
9:55 am 09:55 Cloudy with Light Snow 10 -12.2 4 -15.4 77 77 SW 6 9 30.26 1025 4 6.43736 N/A
10:15 am 10:15 Cloudy with Light Snow 10 -12.1 4 -15.4 77 77 SW 3 6 30.26 1025 2.5 4.02335 N/A
10:35 am 10:35 Cloudy with Light Snow 11 -11.9 4 -15.3 76 76 SW 3 6 30.26 1025 4 6.43736 N/A
10:55 am 10:55 Cloudy with Light Snow 11 -11.5 5 -15.1 75 75 W 5 7 30.27 1025 5 8.0467 N/A
11:15 am 11:15 Cloudy with Light Snow 12 -11.1 5 -14.9 74 74 WSW 5 7 30.26 1025 3 4.82802 N/A
11:35 am 11:35 Cloudy with Light Snow 13 -10.7 6 -14.6 73 73 W 3 6 30.26 1025 3 4.82802 N/A
11:55 am 11:55 Cloudy with Light Snow 14 -10.1 7 -14.1 73 73 N N/A 30.26 1025 7 11.26538 N/A
12:15 pm 12:15 Cloudy with Light Snow 14 -10 6 -14.2 72 72 W 6 9 30.26 1025 5 8.0467 N/A
12:35 pm 12:35 Cloudy with Light Snow 14 -9.8 7 -14 72 72 W 7 11 30.25 1024 10 16.0934 N/A
12:55 pm 12:55 Cloudy 15 -9.3 7 -14 69 69 SSW 7 11 30.24 1024 10 16.0934 N/A
1:15 pm 13:15 Cloudy 16 -8.8 7 -13.8 67 67 SW 6 9 30.23 1024 10 16.0934 N/A
1:35 pm 13:35 Cloudy 16 -8.8 7 -13.9 67 67 WSW 5 7 30.23 1024 10 16.0934 N/A
1:55 pm 13:55 Cloudy 17 -8.4 8 -13.6 66 66 SW 5 7 30.22 1023 10 16.0934 N/A
2:15 pm 14:15 Cloudy 17 -8.6 7 -13.8 66 66 N N/A 30.24 1024 10 16.0934 N/A
2:35 pm 14:35 Cloudy with Light Snow 17 -8.5 8 -13.4 68 68 WSW 6 9 30.23 1024 10 16.0934 N/A
2:55 pm 14:55 Cloudy with Light Snow 17 -8.5 8 -13.4 68 68 W 6 9 30.24 1024 10 16.0934 N/A
3:15 pm 15:15 Cloudy with Light Snow 17 -8.4 8 -13.1 69 69 W 5 7 30.24 1024 7 11.26538 N/A
3:35 pm 15:35 Cloudy with Light Snow 17 -8.4 8 -13.1 69 69 WSW 6 9 30.24 1024 7 11.26538 N/A
3:50 pm 15:50 Cloudy with Light Snow 17 -8.3 9 -12.8 70 70 WSW 5 7 30.24 1024 10 16.0934 N/A
4:15 pm 16:15 Cloudy 17 -8.5 9 -12.9 71 71 WSW 6 9 30.24 1024 10 16.0934 N/A
4:35 pm 16:35 Cloudy 17 -8.5 9 -13 70 70 W 6 9 30.25 1025 10 16.0934 N/A
4:55 pm 16:55 Cloudy with Light Snow 17 -8.5 9 -12.6 73 73 W 7 11 30.26 1025 10 16.0934 N/A
5:15 pm 17:15 Cloudy 16 -8.7 9 -12.6 74 74 WSW 7 11 30.28 1025 10 16.0934 N/A
5:35 pm 17:35 Cloudy 16 -8.7 9 -12.6 74 74 W 6 9 30.29 1026 10 16.0934 N/A
5:55 pm 17:55 Cloudy 16 -8.7 10 -12.5 74 74 W 6 9 30.29 1026 10 16.0934 N/A
6:15 pm 18:15 Cloudy with Light Snow 16 -9 10 -12.5 76 76 W 7 11 30.3 1026 10 16.0934 N/A
6:35 pm 18:35 Cloudy with Light Snow 16 -9 10 -12.5 76 76 W 6 9 30.32 1027 10 16.0934 N/A
6:55 pm 18:55 Cloudy with Light Snow 16 -8.8 10 -12.1 77 77 W 5 7 30.33 1027 10 16.0934 N/A
7:15 pm 19:15 Cloudy with Light Snow 16 -8.8 10 -12 78 78 W 3 6 30.33 1027 10 16.0934 N/A
7:35 pm 19:35 Cloudy with Light Snow 16 -8.8 10 -12 78 78 W 3 6 30.34 1027 10 16.0934 N/A
7:55 pm 19:55 Cloudy with Light Snow 16 -9 11 -11.7 81 81 W 3 6 30.35 1028 10 16.0934 N/A
8:15 pm 20:15 Cloudy 16 -9 11 -11.6 82 82 WSW 5 7 30.35 1028 10 16.0934 N/A
8:35 pm 20:35 Cloudy 16 -8.8 11 -11.5 81 81 SW 5 7 30.36 1028 10 16.0934 N/A
8:55 pm 20:55 Cloudy 16 -8.7 11 -11.5 80 80 SW 3 6 30.37 1028 10 16.0934 N/A
9:15 pm 21:15 Cloudy 17 -8.6 12 -11.3 81 81 W 3 6 30.38 1029 10 16.0934 N/A
9:35 pm 21:35 Cloudy with Light Snow 17 -8.5 12 -11.3 80 80 W 5 7 30.39 1029 10 16.0934 N/A
9:55 pm 21:55 Cloudy 17 -8.3 12 -11.1 80 80 W 3 6 30.39 1029 10 16.0934 N/A
10:15 pm 22:15 Cloudy with Light Snow 17 -8.3 12 -11 81 81 W 5 7 30.4 1030 10 16.0934 N/A
10:35 pm 22:35 Cloudy with Light Snow 17 -8.4 13 -10.8 83 83 W 5 7 30.41 1030 10 16.0934 N/A
10:55 pm 22:55 Cloudy with Light Snow 17 -8.2 13 -10.7 82 82 W 5 7 30.41 1030 7 11.26538 N/A
11:15 pm 23:15 Cloudy 17 -8.2 13 -10.6 83 83 N N/A 30.42 1030 10 16.0934 N/A
11:35 pm 23:35 Cloudy with Light Snow 17 -8.2 13 -10.5 84 84 W 3 6 30.42 1030 10 16.0934 N/A
11:55 pm 23:55 Cloudy with Light Snow 17 -8.2 13 -10.5 84 84 W 3 6 30.42 1030 7 11.26538 N/A

Powered by AerisWeather